TimePDT,TemperatureF,Dew PointF,Humidity,Sea Level PressureIn,VisibilityMPH,Wind Direction,Wind SpeedMPH,Gust SpeedMPH,PrecipitationIn,Events,Conditions,WindDirDegrees,DateUTC
1:52 AM,82.9,46.9,28,29.68,10.0,South,16.1,-,N/A,,Clear,180,2014-05-29 08:52:00
2:52 AM,82.9,42.1,24,29.68,10.0,South,12.7,-,N/A,,Clear,190,2014-05-29 09:52:00
3:52 AM,82.0,41.0,23,29.70,10.0,Calm,Calm,-,N/A,,Clear,0,2014-05-29 10:52:00
4:52 AM,77.0,45.0,32,29.71,10.0,SE,4.6,-,N/A,,Clear,140,2014-05-29 11:52:00
5:52 AM,73.9,43.0,33,29.73,10.0,NNW,6.9,-,N/A,,Clear,330,2014-05-29 12:52:00
6:52 AM,79.0,42.1,27,29.75,10.0,Calm,Calm,-,N/A,,Clear,0,2014-05-29 13:52:00
7:52 AM,84.0,42.1,23,29.76,10.0,North,5.8,-,N/A,,Clear,10,2014-05-29 14:52:00
8:52 AM,89.1,39.9,18,29.78,10.0,SSW,4.6,-,N/A,,Clear,200,2014-05-29 15:52:00
9:52 AM,91.9,42.1,18,29.77,10.0,Calm,Calm,-,N/A,,Unknown,0,2014-05-29 16:52:00
10:52 AM,95.0,37.9,14,29.77,10.0,Variable,3.5,-,N/A,,Clear,0,2014-05-29 17:52:00
11:52 AM,98.1,36.0,11,29.76,10.0,South,5.8,17.3,N/A,,Clear,190,2014-05-29 18:52:00
12:52 PM,100.9,30.9,9,29.74,10.0,South,11.5,19.6,N/A,,Clear,190,2014-05-29 19:52:00
1:52 PM,102.0,28.9,8,29.73,10.0,SSW,12.7,20.7,N/A,,Clear,200,2014-05-29 20:52:00
2:52 PM,102.9,27.0,7,29.71,10.0,South,12.7,-,N/A,,Clear,190,2014-05-29 21:52:00
3:52 PM,104.0,21.9,5,29.70,10.0,South,15.0,-,N/A,,Clear,180,2014-05-29 22:52:00
4:52 PM,102.0,28.0,7,29.68,10.0,SSE,12.7,-,N/A,,Clear,150,2014-05-29 23:52:00
5:52 PM,100.9,28.9,8,29.66,10.0,SE,11.5,-,N/A,,Clear,130,2014-05-30 00:52:00
6:52 PM,99.0,36.0,11,29.67,10.0,SSE,8.1,-,N/A,,Clear,150,2014-05-30 01:52:00
7:52 PM,95.0,39.9,15,29.68,10.0,South,9.2,-,N/A,,Clear,180,2014-05-30 02:52:00
8:52 PM,93.0,37.0,14,29.70,10.0,SSW,8.1,-,N/A,,Clear,210,2014-05-30 03:52:00
9:52 PM,91.0,36.0,14,29.71,10.0,WSW,5.8,-,N/A,,Clear,240,2014-05-30 04:52:00
10:52 PM,88.0,35.1,15,29.72,10.0,South,9.2,-,N/A,,Clear,180,2014-05-30 05:52:00
11:52 PM,89.1,41.0,19,29.73,10.0,SSW,13.8,-,N/A,,Clear,210,2014-05-30 06:52:00